This is the latest recevied weather packets stored in our database for station/object AJ7DN. If no packets are shown the sender has not sent any weather packets the latest 10 day(s).
| Time | Temp. | Humidity | Pressure | Rain* | Wind** | Luminosity | Snow |
|---|---|---|---|---|---|---|---|
| 1777409535 | 14.44° C | 61% | 1028.1 hPa | 0 mm | - | 89 W/m² | - |
| 1777409230 | 14.44° C | 62% | 1028.4 hPa | 0 mm | - | 83 W/m² | - |
| 1777408927 | 13.89° C | 62% | 1028.3 hPa | 0 mm | - | 75 W/m² | - |
| 1777408623 | 14.44° C | 63% | 1028.3 hPa | 0 mm | - | 95 W/m² | - |
| 1777408319 | 14.44° C | 63% | 1028.3 hPa | 0 mm | - | 124 W/m² | - |
| 1777408018 | 14.44° C | 63% | 1028.4 hPa | 0 mm | - | 162 W/m² | - |
| 1777407715 | 14.44° C | 64% | 1028.3 hPa | 0 mm | - | 184 W/m² | - |
| 1777407410 | 13.89° C | 64% | 1028.4 hPa | 0 mm | - | 146 W/m² | - |
| 1777407105 | 13.89° C | 66% | 1028.4 hPa | 0 mm | - | 115 W/m² | - |
| 1777406801 | 13.89° C | 66% | 1028.6 hPa | 0 mm | - | 86 W/m² | - |
| 1777406497 | 13.89° C | 65% | 1028.6 hPa | 0 mm | - | 69 W/m² | - |
| 1777406192 | 13.89° C | 64% | 1028.3 hPa | 0 mm | - | 60 W/m² | - |
| 1777405892 | 14.44° C | 65% | 1028.3 hPa | 0 mm | - | 59 W/m² | - |
| 1777405588 | 14.44° C | 65% | 1028.4 hPa | 0 mm | - | 83 W/m² | - |
| 1777405286 | 13.89° C | 66% | 1028.4 hPa | 0 mm | - | 151 W/m² | - |
| 1777404985 | 13.89° C | 66% | 1028.5 hPa | 0 mm | - | 196 W/m² | - |
| 1777404680 | 13.89° C | 65% | 1028.5 hPa | 0 mm | - | 193 W/m² | - |
| 1777404377 | 13.89° C | 65% | 1028.5 hPa | 0 mm | - | 143 W/m² | - |
| 1777404074 | 13.89° C | 68% | 1028.6 hPa | 0 mm | - | 98 W/m² | - |
| 1777403769 | 14.44° C | 66% | 1028.6 hPa | 0 mm | - | 78 W/m² | - |
| 1777403467 | 14.44° C | 65% | 1028.6 hPa | 0 mm | - | 81 W/m² | - |
| 1777403162 | 14.44° C | 64% | 1028.6 hPa | 0 mm | - | 146 W/m² | - |
| 1777402858 | 13.89° C | 63% | 1028.7 hPa | 0 mm | - | 311 W/m² | - |
| 1777402555 | 13.89° C | 62% | 1028.7 hPa | 0 mm | - | 321 W/m² | - |
| 1777402252 | 13.89° C | 63% | 1028.5 hPa | 0 mm | - | 242 W/m² | - |
* Rain latest hour (hover to see other rain measurements)
** Current wind speed in m/s (hover to see current wind gust speed)